EZY96R EGNT-EGGD

Flight info

Callsign EZY96R
Flight time 0h 55m
Altitude 27000
Route GIRLI P18 GASKO P16 RIBEL/N0439F290 UP16 NOKIN N862 KARNO/N0425F280 DCT ALHUP DCT LUCSA/N0394F230 N862 WEVBE
Aircraft A320/M-SDE3FGHIRWY/LB1

Departure

Time 2026-05-07 11:18
Airport Newcastle International Airport (EGNT)

Arrival

Time 2026-05-07 12:13
Airport Bristol Airport (EGGD)
Time Latitude Longitude Altitude Speed Heading
2026-05-07 10:48 55.03666 -1.70780 262 ft 0 kts
2026-05-07 10:54 55.03665 -1.70780 262 ft 0 kts
2026-05-07 10:59 55.03644 -1.70782 262 ft 3 kts
2026-05-07 10:59 55.03623 -1.70788 262 ft 4 kts 32°
2026-05-07 10:59 55.03605 -1.70821 263 ft 4 kts 51°
2026-05-07 10:59 55.03590 -1.70842 263 ft 2 kts 11°
2026-05-07 11:00 55.03573 -1.70847 263 ft 0 kts
2026-05-07 11:01 55.03586 -1.70828 263 ft 6 kts 57°
2026-05-07 11:02 55.03594 -1.70705 262 ft 14 kts 94°
2026-05-07 11:02 55.03603 -1.70495 260 ft 19 kts 59°
2026-05-07 11:02 55.03717 -1.70435 258 ft 17 kts
2026-05-07 11:02 55.03780 -1.70307 257 ft 16 kts 95°
2026-05-07 11:03 55.03774 -1.70093 255 ft 20 kts 91°
2026-05-07 11:03 55.03786 -1.69829 252 ft 24 kts 81°
2026-05-07 11:03 55.03832 -1.69525 249 ft 28 kts 68°
2026-05-07 11:03 55.03917 -1.69201 247 ft 31 kts 65°
2026-05-07 11:04 55.04014 -1.68836 245 ft 34 kts 64°
2026-05-07 11:04 55.04115 -1.68451 243 ft 36 kts 66°
2026-05-07 11:04 55.04225 -1.68043 243 ft 35 kts 65°
2026-05-07 11:04 55.04320 -1.67688 243 ft 21 kts 66°
2026-05-07 11:05 55.04372 -1.67475 242 ft 8 kts 83°
2026-05-07 11:05 55.04372 -1.67468 242 ft 0 kts 84°
2026-05-07 11:16 55.04372 -1.67460 242 ft 4 kts 90°
2026-05-07 11:16 55.04307 -1.67380 243 ft 17 kts 164°
2026-05-07 11:16 55.04200 -1.67441 242 ft 19 kts 245°
2026-05-07 11:16 55.04136 -1.67682 240 ft 0 kts 244°
2026-05-07 11:17 55.04134 -1.67692 240 ft 10 kts 244°
2026-05-07 11:17 55.03980 -1.68266 240 ft 91 kts 245°
2026-05-07 11:17 55.03623 -1.69589 253 ft 148 kts 243°
2026-05-07 11:17 55.03191 -1.71390 655 ft 167 kts 246°
2026-05-07 11:18 55.02656 -1.73257 1206 ft 180 kts 231°
2026-05-07 11:18 55.01715 -1.74886 1610 ft 204 kts 214°
2026-05-07 11:18 55.00439 -1.76346 2034 ft 233 kts 210°
2026-05-07 11:18 54.98963 -1.77716 2803 ft 246 kts 203°
2026-05-07 11:19 54.97348 -1.78709 4025 ft 245 kts 198°
2026-05-07 11:19 54.95700 -1.79438 5195 ft 245 kts 195°
2026-05-07 11:19 54.94016 -1.80275 6096 ft 254 kts 200°
2026-05-07 11:19 54.92338 -1.81311 7079 ft 257 kts 202°
2026-05-07 11:20 54.90666 -1.82431 7734 ft 263 kts 203°
2026-05-07 11:20 54.88956 -1.83610 8243 ft 265 kts 204°
2026-05-07 11:20 54.87233 -1.84803 9300 ft 267 kts 203°
2026-05-07 11:20 54.85496 -1.86005 10239 ft 271 kts 203°
2026-05-07 11:21 54.83739 -1.87172 11104 ft 276 kts 198°
2026-05-07 11:21 54.81819 -1.87696 11945 ft 283 kts 182°
2026-05-07 11:21 54.79800 -1.87246 12456 ft 306 kts 166°
2026-05-07 11:21 54.77811 -1.85739 13277 ft 307 kts 156°
2026-05-07 11:22 54.75947 -1.84158 14704 ft 289 kts 158°
2026-05-07 11:22 54.74144 -1.82682 15675 ft 286 kts 158°
2026-05-07 11:22 54.72329 -1.81371 16451 ft 286 kts 167°
2026-05-07 11:22 54.70371 -1.80839 17223 ft 285 kts 182°
2026-05-07 11:23 54.68400 -1.81178 17974 ft 286 kts 192°
2026-05-07 11:23 54.66430 -1.81826 18627 ft 291 kts 192°
2026-05-07 11:23 54.64430 -1.82464 19271 ft 294 kts 192°
2026-05-07 11:23 54.62399 -1.83102 19861 ft 301 kts 192°
2026-05-07 11:24 54.60263 -1.83778 19999 ft 322 kts 192°
2026-05-07 11:24 54.57979 -1.84502 20133 ft 342 kts 192°
2026-05-07 11:24 54.55570 -1.85259 20252 ft 360 kts 191°
2026-05-07 11:24 54.53038 -1.86054 20388 ft 377 kts 191°
2026-05-07 11:25 54.50427 -1.86873 20513 ft 393 kts 191°
2026-05-07 11:25 54.47686 -1.87731 20637 ft 407 kts 191°
2026-05-07 11:25 54.44869 -1.88611 20962 ft 414 kts 191°
2026-05-07 11:25 54.42012 -1.89505 21388 ft 418 kts 191°
2026-05-07 11:26 54.39168 -1.90391 21810 ft 422 kts 191°
2026-05-07 11:26 54.36263 -1.91295 22284 ft 424 kts 191°
2026-05-07 11:26 54.33337 -1.92206 22769 ft 427 kts 191°
2026-05-07 11:26 54.30406 -1.93119 23204 ft 430 kts 191°
2026-05-07 11:27 54.27476 -1.94034 23638 ft 432 kts 191°
2026-05-07 11:27 54.24501 -1.95037 24018 ft 434 kts 196°
2026-05-07 11:27 54.21739 -1.97107 24337 ft 437 kts 212°
2026-05-07 11:27 54.19386 -2.00448 24627 ft 442 kts 222°
2026-05-07 11:28 54.17136 -2.04056 24965 ft 444 kts 222°
2026-05-07 11:28 54.14920 -2.07647 25290 ft 446 kts 223°
2026-05-07 11:28 54.12653 -2.11327 25617 ft 449 kts 223°
2026-05-07 11:28 54.10385 -2.14988 26039 ft 449 kts 222°
2026-05-07 11:29 54.08103 -2.18646 26366 ft 451 kts 222°
2026-05-07 11:29 54.05806 -2.22302 26678 ft 452 kts 222°
2026-05-07 11:29 54.03496 -2.25965 27013 ft 454 kts 221°
2026-05-07 11:29 54.00985 -2.29147 27261 ft 455 kts 208°
2026-05-07 11:30 53.98065 -2.31279 27573 ft 456 kts 201°
2026-05-07 11:30 53.95084 -2.33220 27838 ft 459 kts 200°
2026-05-07 11:30 53.92091 -2.35143 28072 ft 462 kts 199°
2026-05-07 11:30 53.89106 -2.37045 28420 ft 462 kts 200°
2026-05-07 11:31 53.86086 -2.38970 28685 ft 465 kts 200°
2026-05-07 11:31 53.83037 -2.40917 28935 ft 467 kts 200°
2026-05-07 11:31 53.79998 -2.42862 29050 ft 466 kts 200°
2026-05-07 11:31 53.76942 -2.44816 29057 ft 467 kts 200°
2026-05-07 11:32 53.67837 -2.50620 29056 ft 470 kts 199°
2026-05-07 11:33 53.61727 -2.54493 29052 ft 471 kts 199°
2026-05-07 11:33 53.55578 -2.58387 29053 ft 471 kts 199°
2026-05-07 11:34 53.49521 -2.62218 29061 ft 464 kts 199°
2026-05-07 11:34 53.43473 -2.66013 29057 ft 463 kts 199°
2026-05-07 11:35 53.37441 -2.69778 29051 ft 462 kts 199°
2026-05-07 11:35 53.31406 -2.73551 29054 ft 463 kts 199°
2026-05-07 11:36 53.25364 -2.77327 29053 ft 463 kts 199°
2026-05-07 11:36 53.19321 -2.81087 29046 ft 463 kts 199°
2026-05-07 11:37 53.13296 -2.84804 29043 ft 464 kts 199°
2026-05-07 11:37 53.07160 -2.88092 29041 ft 462 kts 189°
2026-05-07 11:38 53.00805 -2.88887 29044 ft 461 kts 181°
2026-05-07 11:38 52.94379 -2.89426 29037 ft 461 kts 181°
2026-05-07 11:39 52.87991 -2.90169 29033 ft 463 kts 186°
2026-05-07 11:39 52.84807 -2.90919 29042 ft 452 kts 186°
2026-05-07 11:39 52.81762 -2.91643 28942 ft 432 kts 186°
2026-05-07 11:39 52.78822 -2.92341 28681 ft 422 kts 186°
2026-05-07 11:40 52.75955 -2.93014 28386 ft 418 kts 186°
2026-05-07 11:40 52.73078 -2.93686 28111 ft 417 kts 186°
2026-05-07 11:40 52.70208 -2.94218 27729 ft 412 kts 181°
2026-05-07 11:40 52.67360 -2.94463 27106 ft 407 kts 181°
2026-05-07 11:41 52.64536 -2.94694 26502 ft 403 kts 181°
2026-05-07 11:41 52.61741 -2.94922 25902 ft 399 kts 182°
2026-05-07 11:41 52.58980 -2.95146 25315 ft 395 kts 182°
2026-05-07 11:41 52.56242 -2.95369 24734 ft 392 kts 182°
2026-05-07 11:42 52.53531 -2.95589 24170 ft 388 kts 182°
2026-05-07 11:42 52.50845 -2.95805 23628 ft 384 kts 182°
2026-05-07 11:42 52.48190 -2.96020 23043 ft 380 kts 183°
2026-05-07 11:42 52.45603 -2.96235 22558 ft 374 kts 183°
2026-05-07 11:43 52.43029 -2.96449 22074 ft 368 kts 183°
2026-05-07 11:43 52.40481 -2.96663 21604 ft 363 kts 183°
2026-05-07 11:43 52.37973 -2.96874 21143 ft 358 kts 183°
2026-05-07 11:43 52.35508 -2.97075 20681 ft 355 kts 184°
2026-05-07 11:44 52.33022 -2.97276 20201 ft 352 kts 184°
2026-05-07 11:44 52.30615 -2.97470 19726 ft 349 kts 184°
2026-05-07 11:44 52.28189 -2.97665 19247 ft 347 kts 184°
2026-05-07 11:44 52.25784 -2.97857 18764 ft 345 kts 184°
2026-05-07 11:45 52.23385 -2.98048 18265 ft 345 kts 184°
2026-05-07 11:45 52.20995 -2.98242 17738 ft 343 kts 184°
2026-05-07 11:45 52.18618 -2.98437 17246 ft 340 kts 184°
2026-05-07 11:45 52.16256 -2.98631 16759 ft 338 kts 184°
2026-05-07 11:46 52.13911 -2.98821 16274 ft 336 kts 184°
2026-05-07 11:46 52.11602 -2.99009 15880 ft 335 kts 184°
2026-05-07 11:46 52.09248 -2.99200 15806 ft 341 kts 183°
2026-05-07 11:46 52.06862 -2.99392 15712 ft 341 kts 183°
2026-05-07 11:47 52.04478 -2.99584 15572 ft 341 kts 183°
2026-05-07 11:47 52.02118 -2.99773 15458 ft 339 kts 183°
2026-05-07 11:47 51.99791 -2.99960 15317 ft 339 kts 183°
2026-05-07 11:47 51.97427 -3.00151 15190 ft 338 kts 182°
2026-05-07 11:48 51.95072 -2.99948 15059 ft 339 kts 171°
2026-05-07 11:48 51.92766 -2.98982 14433 ft 346 kts 161°
2026-05-07 11:48 51.90492 -2.97610 13690 ft 351 kts 160°
2026-05-07 11:48 51.88235 -2.96238 12989 ft 349 kts 160°
2026-05-07 11:49 51.86013 -2.94892 12298 ft 333 kts 161°
2026-05-07 11:49 51.83883 -2.93608 11696 ft 320 kts 161°
2026-05-07 11:49 51.81809 -2.92366 11093 ft 315 kts 161°
2026-05-07 11:49 51.79762 -2.91142 10478 ft 310 kts 161°
2026-05-07 11:50 51.77795 -2.89967 10185 ft 289 kts 160°
2026-05-07 11:50 51.75954 -2.88868 9931 ft 277 kts 161°
2026-05-07 11:50 51.74168 -2.87802 9800 ft 276 kts 161°
2026-05-07 11:50 51.72355 -2.86788 9661 ft 275 kts 167°
2026-05-07 11:51 51.70460 -2.86375 9528 ft 274 kts 180°
2026-05-07 11:51 51.68563 -2.86658 9245 ft 275 kts 189°
2026-05-07 11:51 51.66685 -2.87132 8701 ft 270 kts 189°
2026-05-07 11:51 51.64840 -2.87609 8172 ft 267 kts 189°
2026-05-07 11:52 51.63030 -2.88078 7640 ft 265 kts 189°
2026-05-07 11:52 51.61217 -2.88544 7131 ft 262 kts 189°
2026-05-07 11:52 51.59414 -2.89007 6600 ft 260 kts 189°
2026-05-07 11:52 51.57626 -2.89464 6040 ft 258 kts 190°
2026-05-07 11:53 51.55869 -2.89912 5501 ft 255 kts 189°
2026-05-07 11:53 51.54116 -2.90356 4990 ft 254 kts 189°
2026-05-07 11:53 51.52372 -2.90797 4470 ft 253 kts 189°
2026-05-07 11:53 51.50641 -2.91232 3963 ft 250 kts 189°
2026-05-07 11:54 51.49012 -2.91640 3865 ft 229 kts 189°
2026-05-07 11:54 51.47489 -2.92026 3809 ft 214 kts 189°
2026-05-07 11:54 51.46059 -2.92388 3730 ft 202 kts 189°
2026-05-07 11:54 51.44715 -2.92728 3655 ft 193 kts 189°
2026-05-07 11:55 51.43417 -2.93053 3568 ft 184 kts 189°
2026-05-07 11:55 51.42171 -2.93364 3500 ft 176 kts 189°
2026-05-07 11:55 51.41008 -2.93656 3449 ft 161 kts 189°
2026-05-07 11:55 51.39947 -2.93924 3344 ft 147 kts 189°
2026-05-07 11:56 51.38965 -2.93880 3288 ft 140 kts 166°
2026-05-07 11:56 51.38138 -2.93129 3223 ft 140 kts 140°
2026-05-07 11:56 51.37608 -2.91802 2996 ft 146 kts 112°
2026-05-07 11:56 51.37535 -2.90178 2722 ft 148 kts 90°
2026-05-07 11:57 51.37607 -2.88546 2479 ft 146 kts 91°
2026-05-07 11:57 51.37671 -2.87474 2394 ft 146 kts 88°
2026-05-07 11:57 51.37743 -2.85863 2245 ft 144 kts 95°
2026-05-07 11:57 51.37764 -2.84257 2042 ft 145 kts 92°
2026-05-07 11:58 51.37897 -2.82116 1828 ft 145 kts 89°
2026-05-07 11:58 51.37951 -2.81034 1721 ft 144 kts 95°
2026-05-07 11:58 51.37928 -2.79440 1440 ft 141 kts 95°
2026-05-07 11:58 51.37977 -2.77884 1126 ft 140 kts 91°
2026-05-07 11:59 51.38051 -2.76331 913 ft 138 kts 81°
2026-05-07 11:59 51.38211 -2.74804 813 ft 137 kts 93°
2026-05-07 11:59 51.38216 -2.73268 741 ft 139 kts 86°
2026-05-07 11:59 51.38316 -2.71633 924 ft 163 kts 90°
2026-05-07 12:00 51.38405 -2.69709 1795 ft 180 kts 88°
2026-05-07 12:00 51.38525 -2.67635 2726 ft 193 kts 88°
2026-05-07 12:00 51.38680 -2.65377 3069 ft 213 kts 86°
2026-05-07 12:00 51.38846 -2.63066 3018 ft 210 kts 87°
2026-05-07 12:01 51.39023 -2.60739 3017 ft 210 kts 85°
2026-05-07 12:01 51.39190 -2.58413 3011 ft 210 kts 86°
2026-05-07 12:01 51.39356 -2.56092 3010 ft 209 kts 86°
2026-05-07 12:01 51.39531 -2.53771 3008 ft 210 kts 86°
2026-05-07 12:02 51.39973 -2.51577 3006 ft 215 kts 57°
2026-05-07 12:02 51.41137 -2.50090 3008 ft 218 kts 22°
2026-05-07 12:02 51.42613 -2.49397 3010 ft 221 kts 14°
2026-05-07 12:02 51.44118 -2.48860 3009 ft 222 kts 12°
2026-05-07 12:03 51.45624 -2.48344 3004 ft 221 kts 12°
2026-05-07 12:03 51.47150 -2.48305 3009 ft 220 kts 344°
2026-05-07 12:03 51.48482 -2.49388 3008 ft 217 kts 315°
2026-05-07 12:03 51.49322 -2.51349 3006 ft 212 kts 284°
2026-05-07 12:04 51.49538 -2.53643 3015 ft 208 kts 268°
2026-05-07 12:04 51.49563 -2.55970 3010 ft 208 kts 266°
2026-05-07 12:04 51.49562 -2.58302 3009 ft 208 kts 266°
2026-05-07 12:04 51.49565 -2.60601 3008 ft 208 kts 266°
2026-05-07 12:05 51.49565 -2.62939 3006 ft 209 kts 266°
2026-05-07 12:05 51.49560 -2.65272 3011 ft 209 kts 266°
2026-05-07 12:05 51.49554 -2.67612 3009 ft 209 kts 266°
2026-05-07 12:05 51.49549 -2.69930 3011 ft 209 kts 266°
2026-05-07 12:06 51.49540 -2.72264 3008 ft 209 kts 266°
2026-05-07 12:06 51.49536 -2.74607 3009 ft 208 kts 266°
2026-05-07 12:06 51.49528 -2.76919 2750 ft 206 kts 267°
2026-05-07 12:06 51.49509 -2.79198 2525 ft 205 kts 266°
2026-05-07 12:07 51.49390 -2.81473 2506 ft 203 kts 249°
2026-05-07 12:07 51.48685 -2.83362 2520 ft 192 kts 220°
2026-05-07 12:07 51.47624 -2.84526 2515 ft 179 kts 210°
2026-05-07 12:07 51.46629 -2.85499 2517 ft 161 kts 209°
2026-05-07 12:08 51.45723 -2.86390 2500 ft 146 kts 209°
2026-05-07 12:08 51.44861 -2.87235 2515 ft 142 kts 208°
2026-05-07 12:08 51.44021 -2.88058 2533 ft 141 kts 209°
2026-05-07 12:08 51.43189 -2.88875 2512 ft 141 kts 209°
2026-05-07 12:09 51.42356 -2.89688 2498 ft 140 kts 209°
2026-05-07 12:09 51.41536 -2.90485 2501 ft 139 kts 208°
2026-05-07 12:09 51.40623 -2.90984 2502 ft 139 kts 187°
2026-05-07 12:09 51.39658 -2.90902 2501 ft 140 kts 167°
2026-05-07 12:10 51.38775 -2.90245 2501 ft 141 kts 147°
2026-05-07 12:10 51.38108 -2.89109 2501 ft 143 kts 127°
2026-05-07 12:10 51.37745 -2.87604 2503 ft 148 kts 103°
2026-05-07 12:10 51.37741 -2.85922 2274 ft 151 kts 92°
2026-05-07 12:11 51.37786 -2.84247 2044 ft 150 kts 93°
2026-05-07 12:11 51.37845 -2.82569 1842 ft 151 kts 88°
2026-05-07 12:11 51.37943 -2.80909 1585 ft 148 kts 91°
2026-05-07 12:11 51.37948 -2.79259 1420 ft 148 kts 91°
2026-05-07 12:12 51.38046 -2.77640 1231 ft 148 kts 83°
2026-05-07 12:12 51.38130 -2.76005 1041 ft 147 kts 92°
2026-05-07 12:12 51.38177 -2.74380 772 ft 147 kts 91°
2026-05-07 12:12 51.38238 -2.72758 642 ft 145 kts 91°
2026-05-07 12:13 51.38286 -2.71349 604 ft 93 kts 85°
2026-05-07 12:13 51.38317 -2.70800 608 ft 26 kts 68°
2026-05-07 12:13 51.38435 -2.70722 614 ft 14 kts
2026-05-07 12:13 51.38468 -2.70820 624 ft 8 kts 268°
2026-05-07 12:14 51.38468 -2.70853 624 ft 0 kts 267°
2026-05-07 12:14 51.38467 -2.70876 614 ft 8 kts 267°
2026-05-07 12:14 51.38463 -2.70984 615 ft 4 kts 278°
2026-05-07 12:14 51.38479 -2.71004 623 ft 1 kts 333°
2026-05-07 12:15 51.38502 -2.71011 621 ft 5 kts 352°
2026-05-07 12:15 51.38518 -2.71014 619 ft 1 kts 354°
2026-05-07 12:15 51.38525 -2.71015 616 ft 1 kts 354°
2026-05-07 12:15 51.38526 -2.71015 623 ft 0 kts 354°